Khon Kaen Airport
VTUK : now visible

Airfield :











YOU CAN JOIN US ON...

 
LOGIN :

Register | Disclaimer

   EN    FR    IT 

 









Legend :    VFR   Marginal VFR   IFR   Intensive IFR   Very Intensive IFR
Visi :
Ceiling :
>= 8 km
>= 3000ft
5 to 8 km
1000 to 3000 ft
1500m to 5 km
500 to 1000 ft
800 to 1500m
200 to 500 ft
< 800m
< 200 ft
Symbols :   Thunderstorms  Fog  Heavy snow  Heavy precipitations  Wind > 20 kt






- Airport Elevation : 670 ft
- IATA code : KKC


VTUK - Khon Kaen

CURRENT METAR :
  • 240900Z 19011KT 160V220 9999 SCT025 40/18 Q1003 NOSIG

EXPIRED METARs :
  • 240800Z 20013KT 150V240 9999 SCT025 40/18 Q1004 NOSIG
  • 240700Z 19011KT 150V230 9999 SCT025 39/20 Q1005 NOSIG
  • 240600Z 19010KT 160V220 9999 SCT025 39/20 Q1007 NOSIG
  • 240500Z 18013KT 130V200 9999 FEW025 38/21 Q1008 NOSIG

TAF TAF VTUK
Valid from the 24 at 06:00 until the 25 at 06:00 UTC


240500Z 2406/2506 20007KT 8000 FEW030
VTBB FIR / Asia



MET'MAP, your aeronautical weather chart ! - Copyright ORBIFLY December 2007 - Disclaimer

ORBIFLY MET'MAP TEAM :

Programming & Development : Alexandra Zaïnal
Original concept : Baudouin d'Aumeries
Technical & hardware support : Manuel Goepfert
Assistance : Marc-Olivier Méhu




SOURCES & CREDITS :

   NOAA       Earth
Advisory